Weather observations for the past three days for
North Myrtle Beach Grand Strand Airport
Imperial (Metric)
Date Time (edt) Wind (mph) Vis. (mi.) Weather Sky Cond. Temperature (ºF) Relative Humidity Wind Chill (°F) Heat Index (°F) Pressure Precipitation (in)
Air Dwpt 6 hour altimeter (in) sea level (mb) 1 hr 3 hr 6 hr
Max. Min.
24 11:53 S 10 G 17 10.00 Fair CLR 86 80.1 83% 101 30.21 1023.0
24 10:53 S 9 10.00 A Few Clouds FEW018 84 78.1 82% 95 30.21 1023.1
24 09:53 S 7 10.00 Fair CLR 82.9 75.9 79% 91 30.2 1022.7
24 08:53 Calm 10.00 Fair CLR 80.1 75 85% 85 30.19 1022.5
24 07:53 Calm 10.00 Fair CLR 75.9 73 82.9 75 91% 76 30.2 1022.6 0.01
24 06:53 N 5 10.00 Fair CLR 75 73 94% 73 30.17 1021.8 0.01
24 05:53 W 6 10.00 Light Rain SCT027 BKN039 OVC070 77 72 85% 78 30.19 1022.4
24 04:53 SW 10 10.00 Fair CLR 82.9 78.1 85% 93 30.16 1021.5
24 03:53 SW 15 10.00 A Few Clouds FEW021 82.9 80.1 91% 95 30.16 1021.3
24 02:53 SW 18 G 24 10.00 Mostly Cloudy SCT017 BKN060 BKN080 82.9 79 88% 94 30.16 1021.4
24 01:53 SW 15 10.00 Fair CLR 82.9 79 84 82.9 88% 94 30.16 1021.2
24 00:53 SW 13 G 22 10.00 Fair CLR 82.9 79 88% 94 30.16 1021.3
23 23:53 SW 15 10.00 Fair CLR 82.9 79 88% 94 30.15 1021.1
23 22:53 SW 14 10.00 Fair CLR 82.9 79 88% 94 30.14 1020.6
23 21:53 S 13 G 23 10.00 Fair CLR 82.9 79 88% 94 30.13 1020.3
23 20:53 SW 17 G 22 10.00 Fair CLR 82.9 79 88% 94 30.11 1019.7
23 19:53 S 15 10.00 Fair CLR 84 79 87.1 84 85% 96 30.1 1019.2
23 18:53 SW 14 10.00 Fair CLR 84.9 79 82% 98 30.08 1018.8
23 17:53 S 18 10.00 Fair CLR 86 78.1 77% 98 30.07 1018.3
23 16:53 S 17 10.00 Fair CLR 87.1 78.1 75% 100 30.07 1018.5
23 15:53 S 18 G 25 10.00 Fair CLR 87.1 78.1 75% 100 30.08 1018.7
23 14:53 S 13 G 24 10.00 Fair CLR 87.1 79 77% 101 30.1 1019.3
23 13:53 S 12 10.00 Fair CLR 86 77 88 82 75% 97 30.12 1020.0 0.02
23 12:53 S 10 10.00 Fair CLR 86 77 75% 97 30.13 1020.2
23 10:53 S 13 10.00 Mostly Cloudy SCT020 SCT030 BKN038 84 80.1 88% 97 30.13 1020.2 0.01 0.02
23 09:53 S 13 10.00 Mostly Cloudy SCT017 BKN025 BKN033 82.9 80.1 91% 95 30.11 1019.8 0.01
23 08:53 SW 6 10.00 Mostly Cloudy BKN013 BKN023 82.9 79 88% 94 30.11 1019.7
23 07:53 W 3 10.00 Mostly Cloudy SCT013 BKN019 BKN027 82 79 82 78.1 90% 92 30.11 1019.8
23 06:53 Calm 8.00 Fair CLR 78.1 78.1 100% 81 30.1 1019.2
23 05:53 Calm 10.00 Fair CLR 79 77 94% 83 30.08 1018.7
23 04:53 SW 7 10.00 Mostly Cloudy BKN020 81 78.1 91% 89 30.07 1018.2
23 03:53 SW 7 10.00 Partly Cloudy SCT015 81 78.1 91% 89 30.06 1017.8
23 02:53 SW 9 10.00 Fair CLR 82 78.1 88% 91 30.06 1017.9
23 01:53 SW 12 10.00 A Few Clouds FEW020 82 79 82.9 80.1 90% 92 30.07 1018.2
23 00:53 SW 9 10.00 Fair CLR 81 78.1 91% 89 30.07 1018.3
22 23:53 SW 12 10.00 Fair CLR 82 78.1 88% 91 30.08 1018.5
22 22:53 SW 13 10.00 Fair CLR 82.9 77 82% 92 30.08 1018.8
22 21:53 SW 14 10.00 Fair CLR 82 78.1 88% 91 30.06 1018.0
22 20:53 S 15 G 23 10.00 Fair CLR 82 78.1 88% 91 30.02 1016.8
22 19:53 S 15 10.00 Fair CLR 82.9 78.1 84.9 81 85% 93 30.02 1016.6
22 18:53 S 15 10.00 Fair CLR 82.9 77 82% 92 30.01 1016.4
22 17:53 S 17 G 23 10.00 Fair CLR 84.9 77 77% 95 30.01 1016.3
22 16:53 S 13 10.00 Fair CLR 82.9 75.9 79% 91 30.02 1016.6
22 15:53 S 13 G 24 10.00 Fair CLR 82.9 75.9 79% 91 30.03 1016.9
22 14:53 S 12 10.00 Fair CLR 82 75.9 82% 89 30.05 1017.8
22 13:53 S 12 10.00 A Few Clouds FEW033 82 75.9 82.9 78.1 82% 89 30.08 1018.8 0.24
22 12:53 S 8 10.00 Overcast BKN014 BKN035 OVC048 80.1 77 90% 86 30.09 1018.8
22 11:53 SE 9 10.00 Mostly Cloudy FEW033 SCT085 BKN100 80.1 77 90% 86 30.09 1019.0 0.05
22 10:53 SE 8 10.00 Mostly Cloudy BKN018 BKN022 82 75.9 82% 89 30.09 1018.9 0.19
22 09:53 Calm 10.00 Mostly Cloudy FEW032 FEW044 BKN050 80.1 78.1 94% 86 30.08 1018.5 0.19
22 08:53 Calm 10.00 Mostly Cloudy BKN031 BKN042 80.1 77 90% 86 30.07 1018.2
22 07:53 Calm 10.00 A Few Clouds FEW034 78.1 77 82.9 78.1 97% 81 30.06 1018.1 0.37
22 06:53 Calm 10.00 Mostly Cloudy FEW038 SCT060 BKN070 78.1 75.9 93% 81 30.04 1017.4
22 05:53 NW 3 10.00 A Few Clouds FEW012 79 78.1 97% 83 30.04 1017.2 0.37
22 04:53 Calm 10.00 A Few Clouds FEW110 80.1 77 90% 86 30.01 1016.3
22 03:53 W 6 10.00 A Few Clouds FEW027 81 77 88% 88 30.03 1017.0
22 02:53 SW 9 10.00 Mostly Cloudy FEW018 SCT022 BKN036 82 77 85% 90 30.04 1017.3
22 01:53 SW 16 10.00 Mostly Cloudy BKN021 82.9 77 82.9 82 82% 92 30.05 1017.7
22 00:53 SW 16 10.00 Overcast SCT021 OVC027 82.9 77 82% 92 30.06 1018.1
21 23:53 SW 15 10.00 A Few Clouds FEW021 82.9 75.9 79% 91 30.07 1018.3
21 21:53 SW 15 10.00 A Few Clouds FEW018 82 77 85% 90 30.07 1018.2
21 20:53 S 12 10.00 Mostly Cloudy BKN017 82 77 85% 90 30.05 1017.7
21 19:53 S 15 10.00 Fair CLR 82 75.9 86 82 82% 89 30.03 1017.1
21 18:53 S 15 10.00 A Few Clouds FEW080 82.9 73.9 74% 89 30.02 1016.7
21 17:53 S 13 10.00 Fair CLR 84 73.9 72% 91 30.03 1016.9
21 16:53 S 12 10.00 Fair CLR 84.9 73.9 70% 92 30.03 1016.9
21 15:53 S 12 10.00 Fair CLR 84.9 73.9 70% 92 30.04 1017.2
21 14:53 S 10 10.00 Fair CLR 84.9 73.9 70% 92 30.06 1018.0
21 13:53 S 12 10.00 A Few Clouds FEW030 84 75 84.9 75 74% 92 30.07 1018.4
21 12:53 S 12 10.00 Partly Cloudy SCT028 84 75 74% 92 30.09 1018.9
Date Time (edt) Wind (mph) Vis. (mi.) Weather Sky Cond. Air Dwpt Max. Min. Relative Humidity Wind Chill (°F) Heat Index (°F) altimeter (in) sea level (mb) 1 hr 3 hr 6 hr
6 hour
Temperature (ºF) Pressure Precipitation (in)